When you browse on this site, cookies collect data to enhance your experience and personalize the content and advertising you see.
Visit our Privacy Policy to learn more. By continuing to use the site, you agree to this use of cookies and data.
  • în România
  • Lista ţărilor
  • Pe 7 zile
  • Temperatura apei
  • Hartă satelitară
  • Meteo pe hartă
  • Widget-uri
  • user-avatar
    Intrare

    Meteo pe oră la Uige

    Astăzi, 18 Ianuarie, Vineri

    Timp Temperatura Precipitaţii Vânt Presiune Umiditate
    00:00 +20°C° 0.7 mm 0 m/s 691 mmHg 96%
    01:00 +19°C° 0 mm 0 m/s 691 mmHg 96%
    02:00 +19°C° 0.4 mm 0 m/s 691 mmHg 97%
    03:00 +19°C° 0.4 mm 0 m/s 691 mmHg 97%
    04:00 +21°C° 0.4 mm 1 m/s 691 mmHg 98%
    05:00 +19°C° 0.1 mm 0 m/s 691 mmHg 97%
    06:00 +20°C° 0.1 mm 0 m/s 691 mmHg 97%
    07:00 +20°C° 0.1 mm 0 m/s 692 mmHg 97%
    08:00 +22°C° 0.3 mm 0 m/s 692 mmHg 91%
    09:00 +25°C° 0.3 mm 1 m/s 692 mmHg 85%
    10:00 +27°C° 0.3 mm 1 m/s 693 mmHg 78%
    11:00 +28°C° 0.5 mm 1 m/s 692 mmHg 74%
    12:00 +29°C° 0.5 mm 2 m/s 692 mmHg 71%
    13:00 +29°C° 0.5 mm 2 m/s 691 mmHg 67%
    14:00 +29°C° 0.9 mm 2 m/s 691 mmHg 73%
    15:00 +28°C° 0.9 mm 2 m/s 690 mmHg 80%
    16:00 +27°C° 0.9 mm 1 m/s 690 mmHg 86%
    17:00 +26°C° 0.4 mm 1 m/s 690 mmHg 90%
    18:00 +24°C° 0.4 mm 1 m/s 690 mmHg 93%
    19:00 +23°C° 0.4 mm 1 m/s 690 mmHg 97%
    20:00 +23°C° 0.5 mm 1 m/s 691 mmHg 97%
    21:00 +22°C° 0.5 mm 1 m/s 692 mmHg 98%
    22:00 +22°C° 0.5 mm 1 m/s 692 mmHg 98%
    23:00 +22°C° 1.4 mm 1 m/s 692 mmHg 98%

    Mâine, 19 Ianuarie, Sâmbătă

    Timp Temperatura Precipitaţii Vânt Presiune Umiditate
    00:00 +22°C° 1.4 mm 1 m/s 692 mmHg 98%
    01:00 +22°C° 1.4 mm 1 m/s 692 mmHg 98%
    02:00 +22°C° 0.8 mm 1 m/s 692 mmHg 99%
    03:00 +21°C° 0.8 mm 1 m/s 691 mmHg 99%
    04:00 +21°C° 0.8 mm 1 m/s 691 mmHg 99%
    05:00 +21°C° 0.6 mm 1 m/s 691 mmHg 99%
    06:00 +21°C° 0.6 mm 1 m/s 692 mmHg 99%
    07:00 +21°C° 0.6 mm 1 m/s 692 mmHg 99%
    08:00 +21°C° 0.9 mm 1 m/s 692 mmHg 98%
    09:00 +21°C° 0.9 mm 1 m/s 692 mmHg 98%
    10:00 +22°C° 0.9 mm 1 m/s 693 mmHg 97%
    11:00 +22°C° 1 mm 1 m/s 692 mmHg 96%
    12:00 +22°C° 1 mm 1 m/s 692 mmHg 94%
    13:00 +23°C° 1 mm 1 m/s 692 mmHg 93%
    14:00 +22°C° 0.5 mm 1 m/s 691 mmHg 93%
    15:00 +22°C° 0.5 mm 1 m/s 691 mmHg 93%
    16:00 +22°C° 0.5 mm 1 m/s 690 mmHg 92%
    17:00 +22°C° 0 mm 1 m/s 691 mmHg 94%
    18:00 +21°C° 0 mm 1 m/s 691 mmHg 96%
    19:00 +18°C° 0 mm 0 m/s 691 mmHg 98%
    20:00 +18°C° 0 mm 0 m/s 692 mmHg 97%
    21:00 +20°C° 0 mm 1 m/s 692 mmHg 96%
    22:00 +20°C° 0 mm 1 m/s 693 mmHg 96%
    23:00 +20°C° 0.1 mm 1 m/s 692 mmHg 96%

    Poimâine, 20 Ianuarie, Duminică

    Timp Temperatura Precipitaţii Vânt Presiune Umiditate
    00:00 +20°C° 0.1 mm 1 m/s 692 mmHg 96%
    01:00 +20°C° 0.1 mm 1 m/s 692 mmHg 97%
    02:00 +20°C° 0 mm 1 m/s 691 mmHg 97%
    03:00 +20°C° 0 mm 1 m/s 691 mmHg 96%
    04:00 +20°C° 0 mm 1 m/s 691 mmHg 96%
    05:00 +18°C° 0 mm 0 m/s 691 mmHg 95%
    06:00 +19°C° 0 mm 0 m/s 691 mmHg 93%
    07:00 +19°C° 0 mm 0 m/s 692 mmHg 92%
    08:00 +23°C° 0 mm 1 m/s 693 mmHg 81%
    09:00 +26°C° 0 mm 1 m/s 693 mmHg 70%
    10:00 +28°C° 0 mm 1 m/s 694 mmHg 59%
    11:00 +29°C° 0 mm 2 m/s 693 mmHg 56%
    12:00 +30°C° 0 mm 2 m/s 693 mmHg 53%
    13:00 +31°C° 0 mm 2 m/s 692 mmHg 50%
    14:00 +31°C° 0 mm 2 m/s 691 mmHg 52%
    15:00 +30°C° 0 mm 2 m/s 691 mmHg 55%
    16:00 +30°C° 0 mm 2 m/s 690 mmHg 57%
    17:00 +28°C° 0.1 mm 2 m/s 690 mmHg 67%
    18:00 +26°C° 0.1 mm 1 m/s 690 mmHg 77%
    19:00 +23°C° 0.1 mm 1 m/s 691 mmHg 87%
    20:00 +23°C° 0.1 mm 1 m/s 691 mmHg 90%
    21:00 +22°C° 0.1 mm 1 m/s 692 mmHg 93%
    22:00 +19°C° 0.1 mm 0 m/s 693 mmHg 96%
    23:00 +21°C° 0.3 mm 1 m/s 692 mmHg 97%

    21 Ianuarie, Luni

    Timp Temperatura Precipitaţii Vânt Presiune Umiditate
    00:00 +21°C° 0.3 mm 1 m/s 692 mmHg 98%
    01:00 +21°C° 0.3 mm 1 m/s 692 mmHg 99%
    02:00 +21°C° 0 mm 1 m/s 692 mmHg 99%
    03:00 +21°C° 0 mm 1 m/s 691 mmHg 99%
    04:00 +21°C° 0 mm 1 m/s 691 mmHg 99%
    05:00 +21°C° 0 mm 1 m/s 692 mmHg 98%
    06:00 +22°C° 0 mm 1 m/s 692 mmHg 97%
    07:00 +22°C° 0 mm 1 m/s 692 mmHg 97%
    08:00 +24°C° 0 mm 1 m/s 693 mmHg 86%
    09:00 +26°C° 0 mm 1 m/s 693 mmHg 76%
    10:00 +28°C° 0 mm 1 m/s 694 mmHg 65%
    11:00 +29°C° 0 mm 2 m/s 693 mmHg 60%
    12:00 +30°C° 0 mm 2 m/s 693 mmHg 55%
    13:00 +31°C° 0 mm 2 m/s 692 mmHg 50%
    14:00 +31°C° 0.2 mm 2 m/s 691 mmHg 53%
    15:00 +31°C° 0.2 mm 2 m/s 691 mmHg 56%
    16:00 +30°C° 0.2 mm 2 m/s 690 mmHg 59%
    17:00 +28°C° 0.7 mm 2 m/s 690 mmHg 71%
    18:00 +25°C° 0.7 mm 1 m/s 690 mmHg 83%
    19:00 +23°C° 0.7 mm 1 m/s 690 mmHg 94%
    20:00 +22°C° 0.3 mm 1 m/s 691 mmHg 95%
    21:00 +22°C° 0.3 mm 1 m/s 692 mmHg 96%
    22:00 +22°C° 0.3 mm 1 m/s 692 mmHg 97%
    23:00 +21°C° 0 mm 1 m/s 692 mmHg 98%

    22 Ianuarie, Marţi

    Timp Temperatura Precipitaţii Vânt Presiune Umiditate
    00:00 +21°C° 0 mm 1 m/s 691 mmHg 98%
    01:00 +21°C° 0 mm 1 m/s 691 mmHg 99%
    02:00 +20°C° 0 mm 1 m/s 691 mmHg 99%
    03:00 +20°C° 0 mm 1 m/s 691 mmHg 99%
    04:00 +20°C° 0 mm 1 m/s 690 mmHg 99%
    05:00 +21°C° 0 mm 1 m/s 691 mmHg 98%
    06:00 +21°C° 0 mm 1 m/s 691 mmHg 97%
    07:00 +21°C° 0 mm 1 m/s 692 mmHg 96%
    08:00 +24°C° 0 mm 1 m/s 692 mmHg 82%
    09:00 +26°C° 0 mm 1 m/s 693 mmHg 69%
    10:00 +29°C° 0 mm 1 m/s 693 mmHg 55%
    11:00 +30°C° 0 mm 2 m/s 693 mmHg 52%
    12:00 +31°C° 0 mm 2 m/s 692 mmHg 48%
    13:00 +32°C° 0 mm 2 m/s 691 mmHg 45%
    14:00 +31°C° 0.2 mm 2 m/s 691 mmHg 49%
    15:00 +31°C° 0.2 mm 2 m/s 690 mmHg 53%
    16:00 +30°C° 0.2 mm 2 m/s 690 mmHg 57%
    17:00 +28°C° 0.4 mm 2 m/s 690 mmHg 67%
    18:00 +26°C° 0.4 mm 1 m/s 690 mmHg 77%
    19:00 +23°C° 0.4 mm 1 m/s 690 mmHg 87%
    20:00 +23°C° 0.1 mm 1 m/s 690 mmHg 90%
    21:00 +22°C° 0.1 mm 1 m/s 691 mmHg 93%
    22:00 +22°C° 0.1 mm 1 m/s 691 mmHg 96%
    23:00 +21°C° 0.1 mm 1 m/s 691 mmHg 97%

    23 Ianuarie, Miercuri

    Timp Temperatura Precipitaţii Vânt Presiune Umiditate
    00:00 +21°C° 0.1 mm 1 m/s 691 mmHg 98%
    01:00 +21°C° 0.1 mm 1 m/s 691 mmHg 99%
    02:00 +22°C° 0 mm 1 m/s 691 mmHg 98%
    03:00 +22°C° 0 mm 1 m/s 691 mmHg 97%
    04:00 +22°C° 0 mm 1 m/s 691 mmHg 96%
    05:00 +22°C° 0 mm 1 m/s 691 mmHg 96%
    06:00 +22°C° 0 mm 1 m/s 692 mmHg 95%
    07:00 +22°C° 0 mm 1 m/s 692 mmHg 95%
    08:00 +24°C° 0 mm 1 m/s 693 mmHg 83%
    09:00 +26°C° 0 mm 1 m/s 693 mmHg 70%
    10:00 +29°C° 0 mm 1 m/s 693 mmHg 58%
    11:00 +30°C° 0 mm 2 m/s 693 mmHg 53%
    12:00 +31°C° 0 mm 2 m/s 692 mmHg 49%
    13:00 +32°C° 0 mm 2 m/s 691 mmHg 44%
    14:00 +31°C° 0 mm 2 m/s 691 mmHg 47%
    15:00 +31°C° 0 mm 2 m/s 690 mmHg 49%
    16:00 +31°C° 0 mm 2 m/s 689 mmHg 51%
    17:00 +29°C° 0 mm 2 m/s 690 mmHg 60%
    18:00 +26°C° 0 mm 1 m/s 690 mmHg 68%
    19:00 +24°C° 0 mm 1 m/s 690 mmHg 77%
    20:00 +23°C° 0 mm 1 m/s 690 mmHg 81%
    21:00 +23°C° 0 mm 1 m/s 691 mmHg 86%
    22:00 +22°C° 0 mm 1 m/s 691 mmHg 90%
    23:00 +21°C° 0 mm 1 m/s 691 mmHg 93%
    Arată mai mult